Location: Del Oro Observatory
(38.3044°N, 104.8119°W)
Time: 01:59:23
(UTC-06:00)

Cosmos 1602 Rocket - Visible Passes

Search period start: 01 July 2016 00:00
Search period end: 11 July 2016 00:00
Orbit: 603 x 635 km, 82.5° (Epoch: 30 June)

Date Brightness Start Highest point End Pass type
(mag) Time Alt. Az. Time Alt. Az. Time Alt. Az.
01 Jul 6.5 02:57:46 10° NE 02:59:10 11° ENE 03:00:35 10° E visible
01 Jul 3.7 04:33:08 10° NNW 04:37:23 55° W 04:41:38 10° S visible
02 Jul 5.9 03:13:25 10° NNE 03:16:45 21° ENE 03:20:05 10° SE visible
02 Jul 4.5 04:50:52 10° NNW 04:54:35 28° W 04:58:19 10° SSW visible
03 Jul 4.8 03:30:08 10° N 03:34:14 39° ENE 03:38:20 10° SSE visible
04 Jul 3.6 03:47:15 10° N 03:51:37 79° E 03:54:55 17° SSE visible
05 Jul 6.3 02:29:00 10° NE 02:30:43 12° ENE 02:32:28 10° E visible
05 Jul 3.7 04:04:40 10° NNW 04:08:54 52° W 04:11:30 22° SSW visible
06 Jul 5.7 02:44:51 10° NNE 02:48:18 22° ENE 02:51:01 13° ESE visible
06 Jul 4.6 04:22:26 10° NNW 04:26:06 27° W 04:28:07 19° SW visible
07 Jul 4.6 03:01:37 10° N 03:05:46 42° E 03:07:41 26° SE visible
07 Jul 5.4 04:40:52 10° NW 04:43:13 14° W 04:44:48 12° WSW visible
08 Jul 3.5 03:18:45 10° N 03:23:08 83° E 03:24:24 46° SSE visible
09 Jul 6.2 02:00:17 10° NE 02:02:17 13° ENE 02:04:03 11° E visible
09 Jul 3.8 03:36:12 10° NNW 03:40:25 49° W 03:41:11 44° SW visible
10 Jul 5.4 02:16:18 10° NNE 02:19:51 24° ENE 02:20:51 22° E visible
10 Jul 4.7 03:54:00 10° NNW 03:57:36 26° W 03:57:58 25° W visible
